Location: Cicognara
(44.9500°N, 10.4667°E)
Time: 23:42:34
(UTC+00:00)

Cosmos 1464 Rocket - Pass Details

Date: 20 June 2021
Orbit: 953 x 1001 km, 82.9° (Epoch: 23 July)

Event Time Altitude Azimuth Distance (km) Brightness Sun altitude
Rises 22:22:46 0° 350° (N) 3,723 8.6 -20.4°
Reaches altitude 10° 22:25:18 10° 349° (N) 2,774 7.6 -20.5°
Maximum altitude 22:31:41 79° 265° (W) 1,025 4.0 -20.7°
Enters shadow 22:34:27 36° 185° (S) 1,520 4.5 -20.8°
